FW2294 Weather Reports


time (UTC)temp
C
wind
direction
speed
KPH
gust
KPH
rain 1hr
cm
rain 24hr
cm
rain mn
cm
humidity
%
barometer
mb
20260507162608 12 131 1.6 4.8 0.00 1.07 1.07 88 1010.3
20260507162105 12 133 0.0 1.6 0.00 1.07 1.07 90 1010.2
20260507161601 12 134 0.0 1.6 0.00 1.07 1.07 91 1010.2
20260507161058 12 108 0.0 1.6 0.00 1.07 1.07 93 1010.1
20260507160554 12 128 0.0 1.6 0.00 1.07 1.07 94 1010.2
20260507160051 12 118 1.6 1.6 0.00 1.07 1.07 95 1010.1
20260507155546 12 132 0.0 0.0 0.00 1.07 1.07 95 1010.3
20260507155043 12 133 0.0 0.0 0.00 1.07 1.07 94 1010.2
20260507154540 12 130 0.0 1.6 0.00 1.07 1.07 94 1010.2
20260507154037 12 129 0.0 0.0 0.00 1.07 1.07 95 1010.3
20260507153534 12 134 0.0 0.0 0.00 1.07 1.07 96 1010.2
20260507153323 12 129 0.0 3.2 0.00 1.09 1.07 96 1026.9
20260507153030 12 133 0.0 0.0 0.00 1.07 1.07 97 1010.0
20260507152526 12 137 0.0 1.6 0.00 1.07 1.07 97 1010.0
20260507152023 12 145 0.0 0.0 0.00 1.07 1.07 98 1010.2
20260507151519 13 140 0.0 0.0 0.00 1.07 1.07 98 1010.3
20260507151016 13 133 0.0 0.0 0.00 1.07 1.07 98 1010.1
20260507150513 12 135 0.0 0.0 0.00 1.07 1.07 98 1010.2
20260507150009 12 135 0.0 0.0 0.00 1.07 1.07 98 1010.0
20260507145504 12 131 1.6 1.6 0.00 1.07 1.07 98 1010.2
20260507145002 12 132 0.0 0.0 0.00 1.07 1.07 98 1010.0
20260507144459 12 135 0.0 0.0 0.00 1.07 1.07 98 1010.0
20260507143955 12 135 0.0 0.0 0.00 1.07 1.07 98 1009.7
20260507143453 12 132 0.0 1.6 0.00 1.07 1.07 98 1009.8
20260507143323 13 133 0.0 9.7 0.00 1.22 1.07 98 1026.9
20260507142949 12 133 0.0 1.6 0.00 1.07 1.07 98 1009.9
20260507142445 12 124 1.6 1.6 0.00 1.07 1.07 98 1010.0
20260507141943 12 134 0.0 0.0 0.00 1.07 1.07 99 1010.2
20260507141438 12 131 0.0 0.0 0.00 1.07 1.07 99 1010.1
20260507140936 12 127 0.0 1.6 0.00 1.07 1.07 99 1010.3
20260507140432 12 129 0.0 3.2 0.00 1.07 1.07 99 1010.2
20260507135930 12 131 1.6 3.2 0.00 1.07 1.07 99 1010.2
20260507135427 12 133 1.6 4.8 0.00 1.07 1.07 99 1010.2
20260507134924 12 132 0.0 0.0 0.00 1.07 1.07 99 1010.2
20260507134420 12 130 0.0 3.2 0.00 1.07 1.07 99 1010.1
20260507133916 12 89 1.6 8.0 0.00 1.07 1.07 99 1010.1
20260507133412 13 126 0.0 3.2 0.00 1.07 1.07 99 1010.0
20260507133323 13 126 0.0 9.7 0.00 1.24 1.07 99 1026.9
20260507132911 13 159 0.0 1.6 0.00 1.07 1.07 99 1009.8
20260507132407 13 135 0.0 9.7 0.00 1.07 1.07 99 1009.8
20260507131906 13 131 0.0 1.6 0.00 1.07 1.07 99 1009.6
20260507131401 13 121 0.0 3.2 0.00 1.07 1.07 99 1009.7
20260507130858 13 135 0.0 1.6 0.00 1.07 1.07 99 1009.7
20260507130354 13 78 3.2 3.2 0.00 1.07 1.07 99 1009.7
20260507125854 13 134 0.0 0.0 0.00 1.07 1.07 99 1009.9
20260507125351 13 140 1.6 1.6 0.00 1.07 1.07 99 1009.9
20260507124848 13 132 0.0 1.6 0.00 1.07 1.07 99 1010.1
20260507124344 13 135 0.0 0.0 0.00 1.07 1.07 99 1010.0
20260507123843 13 132 0.0 0.0 0.00 1.07 1.07 99 1009.7
20260507123339 13 133 0.0 0.0 0.00 1.07 1.07 99 1009.8
20260507123323 13 133 0.0 3.2 0.00 1.24 1.07 99 1026.8
20260507122836 13 138 0.0 0.0 0.00 1.07 1.07 99 1009.7
20260507122331 13 139 0.0 1.6 0.00 1.07 1.07 99 1009.7
20260507121828 13 134 0.0 0.0 0.00 1.07 1.07 99 1009.8
20260507121323 13 135 0.0 0.0 0.00 1.07 1.07 99 1009.6
20260507120820 13 133 0.0 0.0 0.00 1.07 1.07 99 1009.5
20260507120316 13 136 0.0 0.0 0.00 1.07 1.07 99 1009.7
20260507115813 13 129 0.0 0.0 0.00 1.07 1.07 99 1009.7
20260507115308 13 134 0.0 0.0 0.00 1.07 1.07 99 1009.8
20260507114804 13 135 0.0 0.0 0.00 1.07 1.07 99 1010.0
20260507114302 13 132 0.0 0.0 0.00 1.07 1.07 99 1009.7
20260507113759 13 134 0.0 0.0 0.00 1.07 1.07 99 1009.6
20260507113323 13 134 0.0 4.8 0.20 1.24 1.07 99 1026.7
20260507113256 13 135 0.0 0.0 0.00 1.07 1.07 99 1009.9
20260507112754 13 137 0.0 0.0 0.13 1.07 1.07 99 1009.6
20260507112250 13 132 0.0 0.0 0.13 1.07 1.07 99 1009.4
20260507111748 13 133 0.0 0.0 0.00 1.04 1.04 99 1009.4
20260507111244 13 128 0.0 0.0 0.18 1.04 1.04 99 1009.6
20260507110741 13 134 0.0 0.0 0.18 1.04 1.04 99 1009.8
20260507110237 13 133 0.0 0.0 0.18 1.02 1.02 99 1009.7
20260507105734 13 128 0.0 0.0 0.30 1.02 1.02 99 1009.2
20260507105230 13 118 0.0 0.0 0.30 0.99 0.99 99 1009.3
20260507104728 13 126 0.0 0.0 0.30 0.97 0.97 99 1009.1
20260507104224 13 122 1.6 4.8 0.30 0.94 0.94 99 1009.3
20260507103720 13 128 0.0 1.6 0.30 0.89 0.89 99 1009.1
20260507103325 13 130 0.0 9.7 0.79 1.04 0.86 99 1026.0
20260507103217 13 104 1.6 4.8 0.48 0.86 0.86 99 1009.1
20260507102713 13 137 0.0 3.2 0.48 0.81 0.81 99 1008.8
20260507102210 13 139 0.0 1.6 0.61 0.79 0.79 99 1008.9
20260507101706 13 127 3.2 9.7 0.66 0.71 0.71 99 1009.1
20260507101201 13 182 3.2 8.0 0.61 0.66 0.66 99 1008.6
20260507100659 13 184 1.6 4.8 0.89 0.61 0.61 99 1008.8
20260507100157 14 133 1.6 4.8 1.27 0.53 0.53 98 1009.0
20260507095655 15 136 3.2 9.7 1.19 0.41 0.41 98 1008.9
20260507095151 15 132 1.6 11.3 0.89 0.30 0.30 98 1008.7
20260507094648 15 135 1.6 8.0 0.61 0.20 0.20 98 1008.5
20260507094144 15 122 0.0 3.2 0.30 0.13 0.13 97 1008.6
20260507093642 15 135 1.6 4.8 0.00 0.08 0.08 97 1008.7
20260507093324 16 137 0.0 12.9 0.08 0.25 0.08 97 1025.5
20260507093141 16 81 1.6 1.6 0.13 0.08 0.08 96 1008.7
20260507092637 16 109 1.6 3.2 0.48 0.08 0.08 96 1008.7
20260507092133 17 88 4.8 8.0 0.36 0.05 0.05 96 1008.6
20260507091630 18 137 0.0 3.2 0.00 0.00 0.00 97 1008.3
20260507091126 18 144 0.0 3.2 0.00 0.00 0.00 97 1008.0
20260507090622 18 129 0.0 1.6 0.00 0.00 0.00 97 1008.1
20260507090119 18 153 1.6 1.6 0.00 0.00 0.00 97 1008.0
20260507085616 18 131 0.0 1.6 0.00 0.00 0.00 97 1008.1
20260507085113 18 120 0.0 1.6 0.00 0.00 0.00 96 1008.3
20260507084610 19 142 0.0 0.0 0.00 0.00 0.00 96 1008.0
20260507084107 19 134 0.0 1.6 0.00 0.00 0.00 96 1008.1
20260507083603 19 134 0.0 1.6 0.00 0.00 0.00 95 1007.9
20260507083325 20 136 0.0 3.2 0.00 0.18 0.00 95 1024.8
20260507083100 19 138 0.0 0.0 0.00 0.00 0.00 95 1007.8
20260507082556 19 141 0.0 0.0 0.00 0.00 0.00 95 1007.6
20260507082052 19 141 0.0 0.0 0.00 0.00 0.00 95 1007.4
20260507081548 19 134 0.0 0.0 0.00 0.00 0.00 94 1007.2
20260507081046 19 141 0.0 0.0 0.00 0.00 0.00 94 1007.5
20260507080542 19 148 0.0 0.0 0.00 0.00 0.00 94 1007.3
20260507080038 19 149 0.0 0.0 0.00 0.00 0.00 94 1007.0
20260507075533 19 147 0.0 0.0 0.00 0.00 0.00 93 1007.0
20260507075030 20 151 1.6 3.2 0.00 0.00 0.00 93 1007.1
20260507074527 20 140 1.6 1.6 0.00 0.00 0.00 93 1007.1
20260507074026 20 180 1.6 3.2 0.00 0.00 0.00 93 1007.0
20260507073521 20 152 0.0 0.0 0.00 0.00 0.00 92 1007.2
20260507073324 20 143 0.0 6.4 0.00 0.18 0.00 92 1024.3
20260507073018 20 147 0.0 0.0 0.00 0.00 0.00 92 1007.4
20260507072515 20 152 0.0 3.2 0.00 0.00 0.00 92 1007.3
20260507072012 20 159 1.6 1.6 0.00 0.00 0.00 92 1007.5
20260507071510 20 203 1.6 3.2 0.00 0.00 0.00 92 1007.8
20260507071006 20 160 1.6 3.2 0.00 0.00 0.00 92 1007.8
20260507070503 20 155 1.6 4.8 0.00 0.00 0.00 92 1007.7
20260507070000 20 151 0.0 1.6 0.00 0.00 0.00 92 1007.6
20260507065456 20 154 0.0 0.0 0.00 0.00 0.00 92 1007.7
20260507064954 20 165 0.0 8.0 0.00 0.00 0.00 91 1007.4
20260507064452 20 169 1.6 3.2 0.00 0.00 0.00 91 1007.6
20260507063950 20 158 0.0 0.0 0.00 0.00 0.00 91 1007.3
20260507063446 20 171 1.6 1.6 0.00 0.00 0.00 91 1007.4
20260507063326 20 162 1.6 3.2 0.00 0.18 0.00 91 1024.3
20260507062943 20 166 3.2 3.2 0.00 0.00 0.00 91 1007.4
20260507062441 20 161 0.0 1.6 0.00 0.00 0.00 91 1007.4
20260507061938 20 148 0.0 1.6 0.00 0.00 0.00 90 1007.6
20260507061436 20 171 0.0 0.0 0.00 0.00 0.00 90 1007.5
20260507060934 20 160 0.0 0.0 0.00 0.00 0.00 90 1007.4
20260507060430 20 158 0.0 0.0 0.00 0.00 0.00 90 1007.3
20260507055927 20 153 0.0 0.0 0.00 0.00 0.00 90 1007.4
20260507055423 20 153 0.0 0.0 0.00 0.00 0.00 89 1007.5
20260507054920 20 158 0.0 1.6 0.00 0.00 0.00 89 1007.6
20260507054416 20 164 0.0 1.6 0.00 0.00 0.00 90 1007.4
20260507053913 20 169 1.6 1.6 0.00 0.00 0.00 89 1007.6
20260507053410 20 159 1.6 1.6 0.00 0.00 0.00 89 1007.8
20260507053324 20 158 0.0 9.7 0.00 0.18 0.00 89 1024.7
20260507052909 20 156 1.6 1.6 0.00 0.00 0.00 89 1007.8
20260507052406 20 175 1.6 1.6 0.00 0.00 0.00 89 1007.9
20260507051903 20 159 1.6 3.2 0.00 0.00 0.00 89 1007.9
20260507051401 20 159 1.6 3.2 0.00 0.00 0.00 88 1008.2
20260507050857 20 224 6.4 9.7 0.00 0.00 0.00 88 1008.2
20260507050354 20 170 1.6 3.2 0.00 0.00 0.00 88 1008.3
20260507050032 21 168 0.0 4.8 0.00 0.18 0.00 84 1025.6
20260507045851 20 146 0.0 3.2 0.00 0.00 0.00 87 1008.4
20260507045347 20 162 1.6 1.6 0.00 0.00 0.00 86 1008.8
20260507044845 20 205 1.6 3.2 0.00 0.00 0.00 86 1009.1
20260507044341 20 168 0.0 3.2 0.00 0.00 0.00 85 1008.9
20260507043837 20 154 0.0 3.2 0.00 0.00 0.00 84 1008.9
20260507043334 20 149 0.0 3.2 0.00 0.00 0.00 84 1009.0
20260507042830 20 156 0.0 4.8 0.00 0.00 0.00 84 1008.8
20260507042326 20 155 0.0 1.6 0.00 0.00 0.00 84 1008.7
20260507041823 20 178 1.6 1.6 0.00 0.00 0.00 84 1008.9
20260507041320 20 152 1.6 1.6 0.00 0.00 0.00 85 1008.8
20260507040817 20 156 1.6 3.2 0.00 0.00 0.00 85 1008.8
20260507040312 20 159 3.2 3.2 0.00 0.00 0.00 86 1009.0
20260507035809 20 149 0.0 1.6 0.00 0.18 0.18 86 1008.4
20260507035306 20 156 1.6 1.6 0.00 0.18 0.18 87 1008.5
20260507034802 20 158 1.6 3.2 0.00 0.18 0.18 87 1008.7
20260507034259 20 151 0.0 1.6 0.00 0.18 0.18 88 1008.6
20260507033757 19 167 0.0 0.0 0.00 0.18 0.18 88 1008.4
20260507033324 20 153 0.0 0.0 0.00 0.18 0.18 89 1025.3
20260507033254 19 150 0.0 0.0 0.00 0.18 0.18 89 1008.5
20260507032751 19 165 0.0 0.0 0.00 0.18 0.18 90 1008.2
20260507032247 19 151 0.0 0.0 0.00 0.18 0.18 90 1008.4
20260507031744 19 149 0.0 0.0 0.00 0.18 0.18 91 1008.3
20260507031241 18 153 0.0 0.0 0.00 0.18 0.18 91 1008.3
20260507030737 18 151 0.0 0.0 0.00 0.18 0.18 91 1008.3
20260507030235 18 153 0.0 0.0 0.00 0.18 0.18 91 1008.3
20260507025732 18 148 0.0 0.0 0.00 0.18 0.18 91 1008.2
20260507025229 19 148 0.0 0.0 0.00 0.18 0.18 90 1008.3
20260507024727 19 148 0.0 0.0 0.00 0.18 0.18 89 1008.3
20260507024224 19 149 0.0 0.0 0.00 0.18 0.18 89 1008.5
20260507023720 19 150 0.0 0.0 0.00 0.18 0.18 89 1008.5
20260507023324 20 150 0.0 3.2 0.00 0.18 0.18 89 1025.1
20260507023217 19 152 0.0 0.0 0.00 0.18 0.18 89 1008.4
20260507022714 19 153 0.0 0.0 0.00 0.18 0.18 90 1008.6
20260507022210 19 150 0.0 1.6 0.00 0.18 0.18 90 1008.5
20260507021706 19 154 0.0 0.0 0.00 0.18 0.18 90 1008.6
20260507021201 19 153 0.0 1.6 0.00 0.18 0.18 90 1008.5
20260507020701 19 149 0.0 0.0 0.00 0.18 0.18 90 1008.8
20260507020156 19 153 1.6 1.6 0.00 0.18 0.18 91 1009.0
20260507015654 18 166 1.6 1.6 0.00 0.18 0.18 91 1009.2
20260507015151 18 153 0.0 0.0 0.00 0.18 0.18 92 1008.8
20260507014648 18 154 0.0 0.0 0.00 0.18 0.18 92 1008.8
20260507014144 18 149 0.0 0.0 0.00 0.18 0.18 92 1008.9
20260507013641 18 150 0.0 0.0 0.00 0.18 0.18 92 1008.7
20260507013324 19 158 0.0 1.6 0.00 0.18 0.18 91 1025.6
20260507013138 18 148 0.0 0.0 0.00 0.18 0.18 91 1008.6
20260507012636 18 151 0.0 0.0 0.00 0.18 0.18 91 1008.6
20260507012131 18 148 0.0 0.0 0.00 0.18 0.18 90 1008.5
20260507011630 19 148 0.0 0.0 0.00 0.18 0.18 89 1008.5
20260507011125 19 146 0.0 0.0 0.00 0.18 0.18 87 1008.5
20260507010620 19 145 0.0 0.0 0.00 0.18 0.18 87 1008.6
20260507010116 20 150 0.0 0.0 0.00 0.18 0.18 86 1008.6
20260507005614 20 151 0.0 0.0 0.00 0.18 0.18 86 1008.5
20260507005110 20 158 0.0 0.0 0.00 0.18 0.18 86 1008.5
20260507004607 20 151 0.0 0.0 0.00 0.18 0.18 85 1008.3
20260507004104 20 157 0.0 0.0 0.00 0.18 0.18 84 1008.7
20260507003600 20 153 0.0 1.6 0.00 0.18 0.18 84 1008.7
20260507003324 21 157 0.0 6.4 0.00 0.18 0.18 84 1025.3
20260507003055 20 158 0.0 0.0 0.00 0.18 0.18 84 1008.5
20260507002552 20 159 0.0 0.0 0.00 0.18 0.18 83 1008.7
20260507002048 20 152 0.0 0.0 0.00 0.18 0.18 83 1008.5
20260507001545 20 161 0.0 1.6 0.00 0.18 0.18 83 1008.8
20260507001042 20 154 0.0 0.0 0.00 0.18 0.18 83 1008.8
20260507000538 20 163 0.0 0.0 0.00 0.18 0.18 82 1008.8
20260507000034 21 152 0.0 0.0 0.00 0.18 0.18 82 1008.8
20260506235532 20 151 0.0 3.2 0.00 0.18 0.18 82 1008.7
20260506235027 20 154 0.0 1.6 0.00 0.18 0.18 83 1008.4
20260506234525 20 157 0.0 0.0 0.00 0.18 0.18 83 1008.5
20260506234022 21 147 0.0 0.0 0.00 0.18 0.18 84 1008.3
20260506233518 21 143 0.0 0.0 0.00 0.18 0.18 84 1008.2
20260506233325 21 146 0.0 3.2 0.00 0.18 0.18 84 1025.1
20260506233015 21 146 0.0 0.0 0.00 0.18 0.18 84 1008.2
20260506232511 21 145 0.0 0.0 0.00 0.18 0.18 82 1008.3
20260506232007 21 147 0.0 0.0 0.00 0.18 0.18 81 1008.5
20260506231505 21 148 0.0 0.0 0.00 0.18 0.18 81 1008.3
20260506231002 21 148 0.0 0.0 0.00 0.18 0.18 80 1008.6
20260506230458 22 149 0.0 0.0 0.00 0.18 0.18 81 1008.2
20260506225955 22 157 1.6 1.6 0.00 0.18 0.18 79 1008.2
20260506225452 22 155 0.0 1.6 0.00 0.18 0.18 78 1008.4
20260506224949 22 153 0.0 1.6 0.00 0.18 0.18 78 1008.4
20260506224446 22 150 0.0 0.0 0.00 0.18 0.18 78 1008.4
20260506223942 22 151 0.0 0.0 0.00 0.18 0.18 76 1008.3
20260506223438 22 149 0.0 0.0 0.00 0.18 0.18 76 1008.2
20260506223325 23 154 0.0 9.7 0.00 0.18 0.18 76 1025.0
20260506222935 22 148 0.0 0.0 0.00 0.18 0.18 76 1008.1
20260506222432 22 149 0.0 1.6 0.00 0.18 0.18 76 1008.4
20260506221929 22 153 0.0 0.0 0.00 0.18 0.18 76 1008.2
20260506221426 22 151 0.0 1.6 0.00 0.18 0.18 75 1008.3
20260506220924 22 152 0.0 0.0 0.00 0.18 0.18 74 1008.2
20260506220419 22 151 0.0 1.6 0.00 0.18 0.18 75 1008.1
20260506215916 22 149 0.0 1.6 0.00 0.18 0.18 73 1008.3
20260506215412 22 153 1.6 1.6 0.00 0.18 0.18 73 1008.2
20260506214908 22 160 1.6 1.6 0.00 0.18 0.18 73 1008.3
20260506214405 22 165 3.2 3.2 0.00 0.18 0.18 72 1008.3
20260506213903 22 147 1.6 3.2 0.00 0.18 0.18 72 1008.3
20260506213400 22 179 1.6 8.0 0.00 0.18 0.18 72 1008.3
20260506213324 23 179 1.6 11.3 0.00 0.18 0.18 71 1025.3
20260506212858 22 165 1.6 3.2 0.00 0.18 0.18 72 1008.5
20260506212353 22 135 3.2 9.7 0.00 0.18 0.18 72 1008.8
20260506211848 22 182 1.6 3.2 0.00 0.18 0.18 73 1008.4
20260506211344 22 218 3.2 3.2 0.00 0.18 0.18 72 1008.2
20260506210842 22 169 1.6 3.2 0.00 0.18 0.18 73 1008.3
20260506210338 22 138 1.6 3.2 0.00 0.18 0.18 74 1008.4
20260506205836 22 164 3.2 4.8 0.00 0.18 0.18 74 1008.5
20260506205332 21 153 1.6 4.8 0.00 0.18 0.18 74 1008.5
20260506204828 21 185 4.8 9.7 0.00 0.18 0.18 75 1008.7
20260506204326 21 203 1.6 3.2 0.00 0.18 0.18 74 1008.4
20260506203823 22 141 1.6 3.2 0.00 0.18 0.18 75 1008.7
20260506203326 22 148 1.6 11.3 0.00 0.18 0.18 75 1025.4
20260506203320 22 172 1.6 8.0 0.00 0.18 0.18 74 1008.6
20260506202817 22 162 0.0 1.6 0.00 0.18 0.18 75 1008.4
20260506202314 22 157 1.6 3.2 0.00 0.18 0.18 74 1008.3
20260506201811 22 167 1.6 3.2 0.00 0.18 0.18 76 1008.2
20260506201308 21 164 1.6 3.2 0.00 0.18 0.18 76 1008.3
20260506200805 21 210 3.2 4.8 0.00 0.18 0.18 77 1007.9
20260506200301 21 193 1.6 3.2 0.00 0.18 0.18 76 1007.7
20260506195757 21 153 0.0 1.6 0.00 0.18 0.18 77 1007.6
20260506195254 21 148 0.0 8.0 0.00 0.18 0.18 77 1007.4
20260506194752 21 157 1.6 1.6 0.00 0.18 0.18 77 1007.6
20260506194248 21 146 0.0 3.2 0.00 0.18 0.18 78 1007.7
20260506193746 21 170 4.8 4.8 0.00 0.18 0.18 77 1007.7
20260506193324 22 145 0.0 9.7 0.00 0.18 0.18 77 1024.8
20260506193242 21 152 1.6 3.2 0.00 0.18 0.18 76 1008.0
20260506192738 21 158 1.6 9.7 0.00 0.18 0.18 77 1008.0
20260506192235 21 144 0.0 3.2 0.00 0.18 0.18 78 1008.2
20260506191732 21 141 1.6 3.2 0.00 0.18 0.18 79 1008.0
20260506191228 21 166 0.0 3.2 0.00 0.18 0.18 80 1008.2
20260506190726 21 150 0.0 3.2 0.00 0.18 0.18 81 1008.1
20260506190222 20 153 1.6 8.0 0.00 0.18 0.18 80 1008.4
20260506185719 20 148 1.6 3.2 0.00 0.18 0.18 81 1008.7
20260506185612 19 169 1.6 12.9 0.00 0.15 0.15 86 1026.9
20260506185215 20 143 1.6 3.2 0.00 0.18 0.18 82 1009.1
20260506184713 20 265 1.6 4.8 0.00 0.18 0.18 83 1009.2
20260506184210 20 171 1.6 1.6 0.00 0.18 0.18 84 1009.2
20260506183707 20 144 0.0 1.6 0.00 0.18 0.18 84 1009.4
20260506183324 20 155 1.6 9.7 0.03 0.18 0.18 85 1026.3
20260506183203 19 176 3.2 9.7 0.00 0.18 0.18 85 1009.6
20260506182700 19 159 1.6 3.2 0.00 0.18 0.18 87 1009.8
20260506182157 19 162 3.2 3.2 0.00 0.18 0.18 86 1009.8
20260506181650 19 172 1.6 4.8 0.13 0.18 0.18 87 1009.8
20260506181147 19 159 1.6 3.2 0.13 0.18 0.18 88 1009.9
20260506180644 19 161 1.6 3.2 0.00 0.15 0.15 87 1009.8
20260506180139 19 149 1.6 3.2 0.00 0.15 0.15 86 1010.0
20260506175636 18 170 1.6 3.2 0.00 0.15 0.15 86 1010.1
20260506175132 18 167 1.6 3.2 0.00 0.15 0.15 86 1010.3
20260506174631 18 159 0.0 3.2 0.00 0.15 0.15 85 1010.2
20260506174127 18 153 1.6 3.2 0.00 0.15 0.15 86 1010.1
20260506173625 18 163 1.6 3.2 0.00 0.15 0.15 86 1010.0
20260506173122 18 152 1.6 3.2 0.00 0.15 0.15 85 1009.8
20260506172619 18 161 3.2 3.2 0.00 0.15 0.15 85 1009.8
20260506172115 18 178 4.8 4.8 0.00 0.15 0.15 85 1009.8
20260506171613 19 148 1.6 4.8 0.00 0.15 0.15 85 1009.9
20260506171111 19 152 0.0 3.2 0.00 0.15 0.15 85 1009.9
20260506170608 18 147 0.0 3.2 0.00 0.15 0.15 87 1010.0
20260506170105 18 163 1.6 3.2 0.00 0.15 0.15 86 1010.1
20260506165603 18 191 3.2 8.0 0.00 0.15 0.15 86 1010.2
20260506165059 18 154 0.0 4.8 0.00 0.15 0.15 89 1010.0
20260506164557 18 174 3.2 3.2 0.00 0.15 0.15 89 1010.1
20260506164054 17 193 8.0 12.9 0.00 0.15 0.15 89 1010.0
20260506163549 17 141 1.6 4.8 0.00 0.15 0.15 90 1010.2
20260506163323 18 203 3.2 4.8 0.00 0.15 0.15 91 1027.1
20260506163046 17 163 1.6 3.2 0.00 0.15 0.15 91 1010.1